EHI
7 7 6 4 2 1 0 0 0 0 0 0 0 0 0 0 0 0 1 2 4 4 4 4 5 5 5 5 4 4 4 4 3 4 4 2 1 0 0 0 0 0 0
10 7 5 4 2 1 0 0 0 0 0 0 0 0 0 0 0 0 0 1 3 4 5 6 6 6 5 4 3 2 3 3 3 3 4 4 2 1 0 0 0 0 0
9 7 5 4 3 1 1 1 0 0 0 0 0 0 0 0 0 0 0 0 1 3 5 7 8 7 5 3 3 2 2 2 2 2 2 3 3 2 1 0 0 0 0
8 7 6 5 3 2 2 1 0 0 0 0 0 0 0 0 0 0 0 0 0 1 3 6 8 7 5 4 3 3 3 2 2 1 1 1 1 2 1 0 0 0 0
10 9 7 5 3 1 1 1 0 0 0 0 0 0 0 0 0 0 0 0 0 0 1 3 5 6 6 5 4 4 4 2 1 1 0 0 0 1 1 0 0 0 0
9 7 6 4 2 0 0 0 0 0 0 0 0 0 0 0 0 0 0 0 0 0 0 0 2 3 5 5 5 5 3 2 1 0 0 0 0 0 0 0 0 0 0
6 5 4 3 1 0 0 0 0 0 0 0 0 0 0 0 0 0 0 0 0 0 1 1 1 1 2 4 5 5 4 3 2 1 0 0 0 0 0 0 0 0 0
6 4 3 2 1 0 0 0 0 0 0 0 0 0 0 0 0 0 0 0 0 0 1 2 1 0 0 1 2 4 5 5 4 3 1 1 0 0 0 0 0 0 0
9 7 4 2 0 0 0 0 0 1 1 0 0 0 0 0 0 0 0 0 0 0 1 1 1 0 0 0 0 2 3 5 6 5 4 2 1 0 0 0 0 0 0
12 10 6 2 1 0 0 0 0 1 1 1 1 0 0 0 0 0 0 0 0 0 0 0 0 0 0 0 0 0 1 3 4 5 5 4 2 1 0 0 0 0 0
12 10 7 4 3 1 0 0 0 0 1 2 1 0 0 0 0 0 0 0 0 0 0 0 0 0 0 0 0 0 0 1 1 3 3 3 3 1 0 0 0 0 0
9 8 6 5 5 3 1 1 0 0 1 1 1 0 0 0 0 0 0 0 0 0 0 0 0 0 0 0 0 0 0 0 0 1 1 1 1 1 0 0 0 0 0
6 5 5 5 6 5 4 2 1 0 0 0 0 0 0 0 0 0 0 0 0 0 0 0 0 0 0 0 0 0 0 0 0 0 0 0 0 0 0 0 0 0 0
3 3 3 4 6 6 5 4 2 1 0 0 0 0 0 0 0 0 0 0 0 0 0 0 0 0 0 0 0 0 0 0 0 0 0 0 0 0 0 0 0 0 0
1 1 2 4 5 6 6 4 3 2 1 0 0 0 0 0 0 0 0 0 0 0 0 0 0 0 0 0 0 0 0 0 0 0 0 0 0 0 0 0 0 0 0
0 0 2 3 4 5 5 4 3 3 3 1 0 0 0 0 0 0 0 0 0 0 0 0 0 0 0 0 0 0 0 0 0 0 0 0 0 0 0 0 0 0 0
0 0 2 3 4 4 4 3 3 3 3 2 1 1 0 0 0 0 0 0 0 0 0 0 0 0 0 0 0 0 0 0 0 0 0 0 0 0 0 0 0 0 0
0 0 1 2 3 3 3 3 3 4 3 3 3 2 1 0 0 0 0 0 0 0 0 0 0 0 0 0 0 0 0 0 0 0 0 0 0 0 0 0 0 0 0
0 0 0 2 3 3 3 2 2 3 3 2 2 2 1 0 0 0 0 0 0 0 0 0 0 0 0 0 0 0 0 0 0 0 0 0 0 0 0 0 0 0 0
1 1 2 3 4 4 3 1 1 1 1 1 1 1 0 0 0 0 0 0 0 0 0 0 0 0 0 0 0 0 0 0 0 0 0 0 0 0 0 0 0 0 0
2 2 4 5 5 4 3 2 1 0 0 0 0 0 0 0 0 0 0 0 0 0 0 0 0 0 0 0 0 0 0 0 0 0 0 0 0 0 0 0 0 0 0
2 2 3 4 4 3 3 2 2 1 1 0 0 0 0 0 0 0 0 0 0 0 0 0 0 0 0 0 0 0 0 0 0 0 0 0 0 0 0 0 0 0 0
1 2 3 3 3 3 1 1 1 1 1 1 1 1 0 0 0 0 0 0 0 0 0 0 0 0 0 0 0 0 0 0 0 0 0 0 0 0 0 0 0 0 0
2 3 3 3 3 2 1 0 0 1 1 1 1 1 0 0 0 0 0 0 0 0 0 0 0 0 0 0 0 0 0 0 0 0 0 0 0 0 0 0 0 0 0
3 3 3 3 3 2 1 0 1 2 2 1 0 0 0 0 0 0 0 0 0 0 0 0 0 0 0 0 0 0 0 0 0 0 0 0 0 0 0 0 0 0 0
3 3 3 3 3 2 1 0 1 2 2 1 0 0 0 0 0 0 0 0 0 0 0 0 0 0 0 0 0 0 0 0 0 0 0 0 0 0 0 0 0 0 0
Wind_Speed
3 2 2 2 2 1 1 1 1 1 1 1 1 1 1 1 2 2 1 4 5 5 6 6 6 7 7 7 7 7 8 8 8 7 7 8 8 8 9 9 9 10 11
3 2 2 2 2 2 2 2 1 1 1 1 2 1 2 2 2 2 2 3 5 5 6 6 6 7 7 8 8 8 8 8 8 8 7 7 8 9 8 8 9 9 10
4 3 2 2 2 2 1 1 1 0 1 1 2 2 2 2 2 2 2 2 3 5 7 7 7 7 8 8 8 8 7 7 8 8 8 8 8 8 9 9 9 8 9
4 3 2 2 2 1 1 1 1 0 1 1 1 2 1 2 2 3 2 2 2 3 5 7 8 8 8 8 9 9 8 8 8 8 8 9 8 8 9 10 10 9 9
4 3 2 2 2 1 1 1 1 1 1 1 1 2 2 2 2 2 2 3 3 3 3 5 8 8 8 8 8 9 9 8 8 8 8 8 9 9 8 9 9 9 9
3 3 2 2 2 1 0 0 1 0 1 1 1 2 2 2 2 2 3 2 2 3 3 4 3 5 7 8 8 8 9 9 8 8 9 8 8 8 9 9 9 10 10
3 3 2 2 2 2 1 1 1 0 1 0 1 2 3 2 2 2 2 1 2 3 3 3 3 3 3 6 7 9 9 10 10 9 9 9 9 9 9 9 10 10 11
2 3 3 2 2 2 1 1 1 1 1 1 1 1 2 4 3 3 1 1 2 2 3 3 3 3 3 2 5 9 10 10 10 10 10 10 10 10 10 9 10 11 11
2 3 3 3 2 2 2 1 1 2 1 1 1 2 1 2 3 3 3 2 2 2 3 3 3 4 4 4 4 7 11 10 11 11 11 10 10 11 11 11 11 12 12
2 2 2 2 2 2 2 1 1 1 2 0 1 0 2 3 1 3 4 3 3 3 3 3 3 4 4 3 5 8 10 10 11 12 11 10 10 11 11 12 12 12 13
1 2 2 2 2 2 2 2 1 1 1 2 1 1 1 1 1 1 3 4 4 3 3 4 3 3 3 3 4 7 10 10 11 11 11 11 11 11 12 12 13 13 13
0 1 2 2 2 2 2 2 2 2 1 1 1 1 1 1 2 2 3 4 4 4 4 3 3 3 3 3 6 8 9 9 10 11 11 11 12 12 12 12 13 14 13
1 1 1 2 2 2 2 1 1 2 2 1 2 2 2 2 2 2 2 3 3 3 3 3 3 3 3 3 4 9 9 9 9 10 11 12 12 13 13 13 14 14 14
2 2 2 2 2 2 2 2 1 2 2 2 2 2 2 3 2 2 2 2 2 3 3 5 3 3 3 3 6 8 6 10 10 10 11 12 12 13 13 13 13 14 13
1 1 2 2 2 2 2 2 1 2 2 2 3 3 2 3 2 2 2 3 2 3 4 4 3 4 3 3 6 4 5 9 10 10 11 12 12 13 14 13 13 13 13
1 1 1 2 2 2 1 1 2 2 2 2 2 2 3 2 2 2 2 2 3 3 4 4 4 5 5 5 6 5 6 10 11 11 11 11 12 12 13 13 13 13 13
1 1 2 2 2 2 2 1 2 2 2 3 2 2 4 3 2 2 2 2 2 2 4 5 4 4 4 5 5 4 5 5 5 10 10 10 11 11 11 11 12 12 13
1 1 1 1 2 2 2 2 3 2 3 3 3 3 4 3 3 3 2 3 3 3 4 6 5 4 5 5 4 5 5 4 4 8 10 11 11 10 10 10 11 11 12
1 1 1 1 1 1 2 2 2 3 3 3 4 4 4 3 3 3 3 3 3 4 3 4 6 4 4 3 3 4 4 4 5 6 8 9 10 10 10 10 11 11 11
1 1 1 1 1 1 2 2 2 2 3 3 3 3 3 3 4 4 3 4 4 4 4 4 5 4 4 4 2 3 4 3 4 5 5 6 7 9 10 10 10 11 11
1 1 1 1 1 1 1 1 2 2 2 3 3 3 3 4 4 4 4 4 3 3 4 4 4 4 4 3 3 3 4 4 4 3 3 4 3 4 5 7 9 10 10
1 0 1 1 1 2 2 3 2 2 2 2 3 4 4 4 4 5 6 6 5 5 5 4 4 5 6 5 4 3 3 2 4 3 2 4 2 4 4 4 8 9 9
0 1 1 1 1 3 3 4 4 2 2 2 2 3 4 4 4 4 6 7 7 7 7 5 5 7 6 5 4 4 4 4 5 4 1 4 3 4 5 6 9 10 9
0 1 1 0 1 3 4 4 4 2 2 3 3 3 3 5 5 4 4 5 6 6 6 4 5 7 6 5 4 5 5 5 4 3 2 3 4 4 5 4 8 10 10
0 1 1 1 1 3 4 4 4 2 2 4 4 4 3 4 7 6 3 5 7 7 7 6 7 8 9 9 6 2 3 2 4 4 2 3 3 3 4 4 5 8 9
0 1 1 1 1 2 4 4 3 1 2 3 4 4 5 5 7 5 2 3 5 6 6 7 7 7 6 6 6 3 3 3 3 4 3 3 3 2 3 3 3 3 4
Wind_Direction
182 193 196 201 203 186 187 196 207 249 276 291 284 260 253 230 215 209 230 218 214 217 220 224 226 226 229 231 234 235 235 234 232 230 227 225 224 225 226 224 222 219 213
177 181 190 200 194 192 197 190 195 212 250 274 291 282 256 238 224 220 228 234 230 228 231 236 239 239 241 240 239 237 237 235 234 232 231 231 229 226 227 227 226 223 217
172 172 177 193 197 190 173 164 189 201 269 281 284 279 255 241 229 226 227 230 240 241 239 242 241 241 244 244 242 240 240 242 238 233 232 231 232 231 227 225 225 226 222
170 163 169 190 190 161 161 171 173 186 280 278 280 279 266 251 242 232 228 227 234 247 248 246 243 240 245 248 245 242 240 242 241 237 235 234 234 233 228 228 228 227 224
168 158 163 176 167 149 165 196 150 163 226 278 274 266 267 258 259 248 232 229 230 236 239 249 244 242 244 247 245 245 243 243 242 241 240 238 236 233 231 230 230 228 228
163 154 157 163 156 141 156 149 128 194 211 238 293 313 291 279 278 261 248 246 245 241 236 241 244 248 246 248 247 249 249 249 247 245 244 242 238 233 234 233 229 230 230
158 153 159 160 154 156 183 176 145 177 280 62 44 342 324 310 293 277 260 265 271 263 243 235 234 233 246 247 244 247 251 254 253 250 248 245 242 237 237 237 235 235 236
159 158 157 165 162 144 119 124 120 117 294 81 116 65 341 336 327 313 291 275 282 283 269 254 243 235 236 239 244 245 249 252 253 254 251 247 244 242 239 239 241 240 240
157 153 163 165 159 156 174 187 151 132 174 310 138 149 159 253 304 314 308 302 296 284 279 275 254 247 240 236 241 245 245 245 248 253 255 251 244 243 241 241 244 243 242
139 148 157 157 159 162 172 195 162 151 145 217 316 217 191 190 205 305 316 313 307 294 289 285 276 268 256 246 243 244 245 242 243 247 249 249 245 243 242 244 245 245 245
132 147 156 154 158 166 180 184 174 155 160 173 201 256 292 320 191 203 290 311 318 299 285 271 265 266 262 251 248 249 249 247 243 243 244 245 244 244 244 246 245 245 245
203 180 165 166 178 181 196 199 192 185 188 188 195 190 177 204 237 213 247 276 291 295 295 278 268 265 262 257 256 259 254 250 247 243 243 244 245 245 246 249 248 246 246
215 224 199 193 200 204 203 199 195 211 214 214 226 226 216 218 212 208 225 265 282 293 301 290 266 263 267 259 261 264 255 250 248 246 244 244 244 244 245 247 248 248 247
219 215 204 208 215 208 204 197 201 225 229 227 243 242 242 247 222 209 205 229 292 299 290 278 290 267 266 262 257 261 257 252 250 246 245 244 244 244 244 245 247 247 245
218 210 202 209 230 221 209 200 215 236 233 233 243 248 249 256 247 233 212 194 205 272 283 272 280 281 277 267 263 257 251 254 255 253 250 248 246 243 242 242 243 242 242
204 185 221 229 239 243 240 232 245 251 242 252 242 251 259 258 262 253 236 228 204 215 260 264 256 272 285 288 281 265 256 259 257 256 255 251 248 246 242 240 240 241 240
198 215 226 228 236 244 248 242 254 252 249 261 264 258 265 260 260 263 254 250 242 216 255 276 265 271 272 280 289 273 266 255 256 256 254 252 247 245 244 243 242 242 240
222 229 233 238 240 238 243 234 250 258 249 256 262 262 267 267 263 260 255 257 254 239 233 273 286 284 275 275 274 276 276 265 257 260 257 254 249 244 242 242 243 244 242
234 241 215 226 257 270 266 254 246 255 260 258 258 258 261 261 267 266 261 259 261 267 244 254 277 279 277 282 292 288 281 276 272 267 261 254 249 249 248 247 245 245 243
217 254 249 245 254 273 271 274 276 280 287 287 281 266 261 255 255 265 271 265 266 272 269 264 272 280 276 281 279 282 294 286 281 281 273 266 257 256 255 252 250 248 245
230 235 264 292 296 274 278 304 294 297 294 299 299 286 275 269 264 266 269 265 265 268 276 275 275 279 282 288 276 259 277 289 286 261 268 274 264 258 255 252 252 249 247
270 312 312 343 347 334 339 330 315 293 296 295 302 307 301 292 300 300 292 284 269 260 265 264 266 271 274 271 269 270 267 286 288 266 246 272 257 260 257 247 248 249 250
302 334 326 26 341 321 328 328 328 317 298 293 290 295 306 311 309 307 309 311 302 283 260 244 256 263 263 264 265 275 269 258 257 255 238 272 267 265 262 256 252 252 252
345 326 319 289 320 324 334 336 331 328 311 297 287 278 289 303 305 307 309 316 309 305 293 269 251 260 264 265 252 253 259 270 274 261 211 252 267 267 271 261 254 251 249
342 314 288 274 322 317 329 335 342 333 324 312 305 301 297 302 308 320 324 314 314 311 312 308 289 281 279 276 273 272 277 273 288 280 222 223 252 271 277 265 259 249 246
227 303 324 305 289 301 321 337 353 356 331 318 319 315 309 312 320 329 319 304 303 300 313 323 323 320 309 297 289 249 239 251 266 274 246 222 246 253 278 266 262 255 249